QUETZSAT 1

Last updated on Mon Dec 15 2025 00:02:54 GMT+0000 (Coordinated Universal Time)

1 37826U 11054A 25348.25852336 -.00000224 00000+0 00000+0 0 9990 2 37826 0.0114 350.1463 0002686 288.4479 180.6691 1.00272716 48021
UTC large
Height (km)
Speed (km/s)
/
Latitude / Longitude
Inclination (degrees)
Orbital Period (minutes)
Azimuth
Elevation
Range (km)
Doppler Factor

Next 0 passes for location: London (51.5072 / 0.1276)

Sorry there are no passes over London.